Weather History for Forest City, IA

Change the Weather History Date:

Monday, November 25, 2013

  Actual Average Record
Temperature  
Mean Temperature 33 °F -  
Max Temperature 42 °F 34 °F 50 °F (2011)
Min Temperature 24 °F 21 °F 21 °F (2012)
Degree Days  
Heating Degree Days 32    
Moisture  
Dew Point 21 °F    
Average Humidity 64    
Maximum Humidity 74    
Minimum Humidity 46    
Precipitation  
Precipitation 0.00 in - - ()
Sea Level Pressure  
Sea Level Pressure 30.04 in    
Wind  
Wind Speed 14 mph (West)    
Max Wind Speed 20 mph    
Max Gust Speed 26 mph    
Visibility 10 miles    
Events      
Averages and records for this station are not official NWS values.
T = Trace of Precipitation, MM = Missing Value Source: NWS Daily Summary

Daily Weather History Graph

Daily Weather History Graph

Search for Another Location

Airport:

Trip Planner

Search our weather history database for the weather conditions in past years. The results will help you decide how hot, cold, wet, or windy it might be!

Date:

Astronomy

Nov. 25, 2013 Rise Set
Actual Time 7:20 AM CST 4:42 PM CST
Civil Twilight 6:48 AM CST 5:14 PM CST
Nautical Twilight 6:13 AM CST 5:49 PM CST
Astronomical Twilight 5:39 AM CST 6:23 PM CST
Moon No Moon Rise 12:31 PM CST (11/25)
Length of Visible Light 10h 25m
Length of Day
9h 22m
Waning Gibbous, 51% of the Moon is Illuminated
Nov 25
Waning Gibbous
Nov 25
Last Quarter
Dec 2
New
Dec 9
First Quarter
Dec 17
Full

Hourly Weather History & Observations

Time (CST) Temp. Windchill Dew Point Humidity Pressure Visibility Wind Dir Wind Speed Gust Speed Precip Events Conditions
12:15 AM 24.8 °F 11.1 °F 12.2 °F 59% 30.10 in 10.0 mi SSW 18.4 mph 25.3 mph N/A   Overcast
12:35 AM 26.6 °F 15.2 °F 12.2 °F 55% 30.10 in 10.0 mi SSW 13.8 mph 20.7 mph N/A   Overcast
12:55 AM 26.6 °F 13.8 °F 12.2 °F 55% 30.08 in 10.0 mi SSW 17.3 mph 21.9 mph N/A   Overcast
1:15 AM 26.6 °F 13.4 °F 12.2 °F 55% 30.07 in 10.0 mi SSW 18.4 mph 24.2 mph N/A   Overcast
1:35 AM 26.6 °F 13.4 °F 14.0 °F 59% 30.06 in 10.0 mi SSW 18.4 mph 25.3 mph N/A   Overcast
1:55 AM 26.6 °F 13.1 °F 14.0 °F 59% 30.06 in 10.0 mi SSW 19.6 mph 25.3 mph N/A   Overcast
2:15 AM 26.6 °F 14.7 °F 15.8 °F 64% 30.06 in 10.0 mi SSW 15.0 mph 20.7 mph N/A   Overcast
2:35 AM 26.6 °F 14.3 °F 17.6 °F 69% 30.06 in 10.0 mi SSW 16.1 mph 20.7 mph N/A   Overcast
2:55 AM 28.4 °F 15.4 °F 17.6 °F 64% 30.05 in 10.0 mi SW 19.6 mph 26.5 mph N/A   Overcast
3:15 AM 26.6 °F 14.3 °F 19.4 °F 74% 30.05 in 10.0 mi SW 16.1 mph 26.5 mph N/A   Overcast
3:35 AM 26.6 °F 13.1 °F 19.4 °F 74% 30.04 in 10.0 mi SW 19.6 mph 25.3 mph N/A   Overcast
3:55 AM 26.6 °F 13.4 °F 19.4 °F 74% 30.02 in 10.0 mi SSW 18.4 mph 25.3 mph N/A   Overcast
4:15 AM 26.6 °F 13.1 °F 19.4 °F 74% 30.02 in 10.0 mi SSW 19.6 mph 26.5 mph N/A   Overcast
4:35 AM 26.6 °F 13.1 °F 19.4 °F 74% 30.01 in 10.0 mi SW 19.6 mph 24.2 mph N/A   Overcast
4:55 AM 26.6 °F 14.3 °F 19.4 °F 74% 30.00 in 10.0 mi SW 16.1 mph 23.0 mph N/A   Overcast
5:15 AM 28.4 °F 16.6 °F 19.4 °F 69% 30.00 in 10.0 mi SW 16.1 mph 24.2 mph N/A   Overcast
5:35 AM 26.6 °F 15.7 °F 19.4 °F 74% 30.01 in 10.0 mi SW 12.7 mph 21.9 mph N/A   Scattered Clouds
5:55 AM 28.4 °F 17.5 °F 19.4 °F 69% 30.01 in 10.0 mi SW 13.8 mph - N/A   Clear
6:15 AM 28.4 °F 18.0 °F 19.4 °F 69% 30.01 in 10.0 mi SW 12.7 mph 19.6 mph N/A   Clear
6:35 AM 28.4 °F 18.0 °F 19.4 °F 69% 30.01 in 10.0 mi SW 12.7 mph - N/A   Clear
6:55 AM 28.4 °F 18.5 °F 19.4 °F 69% 30.02 in 10.0 mi SW 11.5 mph - N/A   Scattered Clouds
7:15 AM 28.4 °F 17.0 °F 19.4 °F 69% 30.02 in 10.0 mi SW 15.0 mph 19.6 mph N/A   Mostly Cloudy
7:35 AM 28.4 °F 17.0 °F 19.4 °F 69% 30.02 in 10.0 mi SW 15.0 mph - N/A   Overcast
7:55 AM 28.4 °F 17.0 °F 19.4 °F 69% 30.02 in 10.0 mi SW 15.0 mph 18.4 mph N/A   Overcast
8:15 AM 28.4 °F 19.1 °F 19.4 °F 69% 30.02 in 10.0 mi SW 10.4 mph - N/A   Overcast
8:35 AM 28.4 °F 18.0 °F 19.4 °F 69% 30.03 in 10.0 mi SW 12.7 mph 18.4 mph N/A   Overcast
8:55 AM 30.2 °F 20.2 °F 19.4 °F 64% 30.03 in 10.0 mi WSW 12.7 mph 20.7 mph N/A   Scattered Clouds
9:15 AM 30.2 °F 21.3 °F 21.2 °F 69% 30.03 in 10.0 mi WSW 10.4 mph - N/A   Clear
9:35 AM 30.2 °F 20.8 °F 19.4 °F 64% 30.03 in 10.0 mi WSW 11.5 mph 18.4 mph N/A   Clear
9:55 AM 30.2 °F 21.3 °F 21.2 °F 69% 30.04 in 10.0 mi WSW 10.4 mph - N/A   Scattered Clouds
10:15 AM 32.0 °F 23.6 °F 21.2 °F 64% 30.03 in 10.0 mi WSW 10.4 mph 17.3 mph N/A   Clear
10:35 AM 32.0 °F 24.2 °F 21.2 °F 64% 30.03 in 10.0 mi WSW 9.2 mph 17.3 mph N/A   Clear
10:55 AM 33.8 °F 27.0 °F 23.0 °F 65% 30.03 in 10.0 mi West 8.1 mph - N/A   Clear
11:15 AM 35.6 °F 27.1 °F 23.0 °F 60% 30.02 in 10.0 mi West 12.7 mph 18.4 mph N/A   Clear
11:35 AM 35.6 °F 28.0 °F 23.0 °F 60% 30.02 in 10.0 mi West 10.4 mph 17.3 mph N/A   Scattered Clouds
11:55 AM 37.4 °F 29.8 °F 26.6 °F 65% 30.01 in 10.0 mi West 11.5 mph 18.4 mph N/A   Scattered Clouds
12:15 PM 37.4 °F 29.3 °F 26.6 °F 65% 30.01 in 10.0 mi West 12.7 mph - N/A   Scattered Clouds
12:35 PM 39.2 °F 30.8 °F 26.6 °F 61% 30.01 in 10.0 mi WNW 15.0 mph 19.6 mph N/A   Mostly Cloudy
12:55 PM 39.2 °F 31.6 °F 26.6 °F 61% 30.01 in 10.0 mi NW 12.7 mph 19.6 mph N/A   Mostly Cloudy
1:15 PM 41.0 °F 33.9 °F 26.6 °F 57% 30.01 in 10.0 mi WNW 12.7 mph 16.1 mph N/A   Mostly Cloudy
1:35 PM 41.0 °F 33.9 °F 26.6 °F 57% 30.00 in 10.0 mi West 12.7 mph 17.3 mph N/A   Scattered Clouds
1:55 PM 41.0 °F 33.5 °F 26.6 °F 57% 30.00 in 10.0 mi West 13.8 mph 19.6 mph N/A   Scattered Clouds
2:15 PM 41.0 °F 33.9 °F 24.8 °F 53% 30.00 in 10.0 mi NW 12.7 mph 20.7 mph N/A   Scattered Clouds
2:35 PM 42.8 °F 36.2 °F 23.0 °F 46% 30.01 in 10.0 mi NW 12.7 mph 21.9 mph N/A   Scattered Clouds
2:55 PM 41.0 °F 32.8 °F 23.0 °F 49% 30.01 in 10.0 mi NW 16.1 mph 23.0 mph N/A   Scattered Clouds
3:15 PM 41.0 °F 33.9 °F 23.0 °F 49% 30.02 in 10.0 mi NW 12.7 mph 20.7 mph N/A   Clear
3:35 PM 41.0 °F 33.5 °F 23.0 °F 49% 30.03 in 10.0 mi NW 13.8 mph 18.4 mph N/A   Mostly Cloudy
3:55 PM 41.0 °F 34.3 °F 23.0 °F 49% 30.04 in 10.0 mi NW 11.5 mph 16.1 mph N/A   Overcast
4:15 PM 39.2 °F 33.0 °F 24.8 °F 56% 30.05 in 10.0 mi NW 9.2 mph - N/A   Overcast
4:35 PM 37.4 °F 30.3 °F 24.8 °F 60% 30.06 in 10.0 mi NW 10.4 mph - N/A   Overcast
4:55 PM 35.6 °F 28.0 °F 23.0 °F 60% 30.06 in 10.0 mi WNW 10.4 mph - N/A   Overcast
5:15 PM 35.6 °F 27.5 °F 23.0 °F 60% 30.06 in 10.0 mi NW 11.5 mph - N/A   Overcast
5:35 PM 33.8 °F 26.4 °F 21.2 °F 60% 30.07 in 10.0 mi NW 9.2 mph 16.1 mph N/A   Scattered Clouds
5:55 PM 33.8 °F 25.3 °F 21.2 °F 60% 30.08 in 10.0 mi NW 11.5 mph - N/A   Clear
6:15 PM 33.8 °F 27.0 °F 21.2 °F 60% 30.08 in 10.0 mi NW 8.1 mph - N/A   Clear
6:35 PM 32.0 °F 25.6 °F 21.2 °F 64% 30.08 in 10.0 mi WNW 6.9 mph - N/A   Clear
6:55 PM 32.0 °F 26.4 °F 21.2 °F 64% 30.08 in 10.0 mi WNW 5.8 mph - N/A   Scattered Clouds
7:15 PM 30.2 °F 25.4 °F 21.2 °F 69% 30.08 in 10.0 mi West 4.6 mph - N/A   Scattered Clouds
7:35 PM 32.0 °F 27.5 °F 21.2 °F 64% 30.08 in 10.0 mi NW 4.6 mph - N/A   Mostly Cloudy
7:55 PM 32.0 °F 27.5 °F 23.0 °F 69% 30.08 in 10.0 mi WNW 4.6 mph - N/A   Overcast
8:15 PM 32.0 °F 26.4 °F 23.0 °F 69% 30.09 in 10.0 mi WNW 5.8 mph - N/A   Overcast
8:35 PM 32.0 °F 26.4 °F 23.0 °F 69% 30.08 in 10.0 mi West 5.8 mph - N/A   Overcast
8:55 PM 32.0 °F 26.4 °F 23.0 °F 69% 30.08 in 10.0 mi WNW 5.8 mph - N/A   Overcast
9:15 PM 32.0 °F 25.6 °F 23.0 °F 69% 30.08 in 10.0 mi West 6.9 mph - N/A   Overcast
9:35 PM 32.0 °F 24.8 °F 23.0 °F 69% 30.08 in 10.0 mi WNW 8.1 mph - N/A   Overcast
9:55 PM 32.0 °F 28.7 °F 23.0 °F 69% 30.08 in 10.0 mi West 3.5 mph - N/A   Overcast
10:15 PM 32.0 °F 26.4 °F 23.0 °F 69% 30.08 in 10.0 mi West 5.8 mph - N/A   Overcast
10:35 PM 32.0 °F 26.4 °F 23.0 °F 69% 30.08 in 10.0 mi West 5.8 mph - N/A   Overcast
10:55 PM 32.0 °F 24.2 °F 23.0 °F 69% 30.09 in 10.0 mi WNW 9.2 mph - N/A   Overcast
11:15 PM 33.8 °F 25.8 °F 23.0 °F 65% 30.09 in 10.0 mi NW 10.4 mph - N/A   Overcast
11:35 PM 33.8 °F 27.0 °F 23.0 °F 65% 30.09 in 10.0 mi NW 8.1 mph - N/A   Overcast
11:55 PM 33.8 °F 24.8 °F 21.2 °F 60% 30.09 in 10.0 mi NW 12.7 mph 17.3 mph N/A   Overcast